Regional Weather Roundup
Issued by NWS Newport/Morehead, NC

Home | Current Version | Previous Version | Text Only | Print | Product List | Glossary On
Versions: 1 2 3 4 5 6 7 8 9 10 11 12 13 14 15 16 17 18 19 20 21 22 23 24 25 26 27 28 29 30 31 32 33 34 35 36 37 38 39 40 41 42 43 44 45 46 47 48 49 50
000
ASUS42 KMHX 202125
RWRMHX
WEATHER ROUNDUP FOR EASTERN NORTH CAROLINA
NATIONAL WEATHER SERVICE NEWPORT/MOREHEAD CITY NC
500 PM EDT WED SEP 20 2017

NOTE: "FAIR" INDICATES FEW OR NO CLOUDS BELOW 12,000 FEET
WITH NO SIGNIFICANT WEATHER AND/OR OBSTRUCTIONS TO VISIBILITY

NCZ015>017-031-032-045>047-102-103-202200-
NORTH COAST

CITY           SKY/WX    TMP DP  RH WIND       PRES   REMARKS
EDENTON        MOSUNNY   88  69  53 CALM      29.93S
ELIZABETH CITY SUNNY     87  65  47 NW9       29.92S
KITTY HAWK     CLEAR     81  65  57 CALM      29.91S
MANTEO         SUNNY     83  65  55 N5        29.93R

$$

NCZ045>047-081-094-103-104-202200-
CENTRAL COAST

CITY           SKY/WX    TMP DP  RH WIND       PRES   REMARKS
FRISCO         SUNNY     84  73  69 NW5       29.94R

$$

NCZ095-097-098-100-101-202200-
SOUTHERN COAST

CITY           SKY/WX    TMP DP  RH WIND       PRES   REMARKS
BEAUFORT       SUNNY     82  72  71 SW12      29.94S
CEDAR ISLAND   NOT AVBL
JACKSONVILLE   SUNNY     88  68  51 SW6       29.93F
PINEY ISLAND     N/A    N/A N/A N/A W7        29.93S
WILMINGTON     SUNNY     90  64  42 W5        29.94F


$$

NCZ011>013-027>030-043-044-078>080-089-090>093-098-202200-
COASTAL PLAIN

CITY           SKY/WX    TMP DP  RH WIND       PRES   REMARKS
AHOSKIE          N/A     82  70  66 CALM      29.93S
CLINTON        SUNNY     90  69  51 W6        29.95S
ELIZABETHTOWN  NOT AVBL
GOLDSBORO      TSTM      75  66  73 NE17G28   29.94R
GREENVILLE     MOSUNNY   88  68  51 N5        29.95S
HAVELOCK       MOSUNNY   89  68  49 NW8       29.94F
KENANSVILLE    SUNNY     88  66  48 W5        29.94S
KINSTON        MOSUNNY   90  66  45 W5        29.94S
NEW BERN       MOSUNNY   88  69  53 W6        29.94S
RICHLANDS      MOSUNNY   88  69  53 SW6       29.94F
ROCKY MOUNT    SUNNY     87  68  52 CALM      29.93S
WASHINGTON     PTSUNNY   89  68  50 NW5       29.93S
WHITEVILLE     SUNNY     88  67  49 CALM      29.94F

$$

AMZ130-135-150-152-154-156-158-170-250-252-270-ANZ085-086-088-633-658-670-202200-
MARINE OBSERVATIONS

STATION/POSITION TIME  TEMP    WIND        PRES    WAVE   SWELL
                       AIR SEA DIR/SP/G            HT/PER HT/PER
                 (UTC) (F)     (DEG/KT/KT) (MB)    (FT/S) (FT/S)
CHESAPEAKE LIGHT NOT AVBL
64 E VA BEACH    2050   72 72  290/  8/ 10 1012.9    8/11   8/11
DUCK             2100   79 75   20/ 11/ 11 1012.7
2 E DUCK         2100      76                N/A     5/11   2/11
OREGON INLET     2100   83 75  300/  7/ 10 1013.1
13E OREGON INLT  2048      75                N/A     6/11   5/11
HATTERAS CG      2100   81 76  270/  7/  9 1013.6
DIAMOND BUOY     2050   77 75  240/  8/ 10 1013.5    4/11   3/11
CAPE LOOKOUT     2100   81     220/  7/ 12 1013.7
BEAUFORT LAB     2100   82 76  220/  5/  9 1013.4
30 SE NEW RVR IN 2008   81     240/ 10/ 12 1014.3
30 SE NEW RVR IN NOT AVBL
27 SE WRIGHTSVLE 2108   81 80  220/ 10/ 14 1014.4
5 SE WRIGHTSVLE  2108   80 79  210/ 12/ 16 1014.0
225 S CAPE HAT   2050   81 81  300/  6/  6 1015.4    6/11   7/11
41 SE CHARLESTON 2110   81 83  210/  6/  8 1014.8

$$




USA.gov is the U.S. government's official web portal to all federal, state and local government web resources and services.